Location: ?????
(38.3715°N, 23.0573°E)
Time: 10:32:58
(UTC+00:00)

Cosmos 1954 Rocket - Pass Details

Date: 03 August 2024
Orbit: 749 x 779 km, 74.0° (Epoch: 14 September)

Event Time Altitude Azimuth Distance (km) Brightness Sun altitude
Rises 19:19:53 0° 346° (NNW) 3,212 8.2 -18.2°
Reaches altitude 10° 19:22:18 10° 350° (N) 2,287 7.2 -18.6°
Maximum altitude 19:27:24 56° 69° (ENE) 900 4.2 -19.3°
Enters shadow 19:29:03 39° 124° (SE) 1,130 4.3 -19.5°
